Regional Weather Roundup
Issued by NWS Little Rock, AR

Home | Current Version | Previous Version | Graphics & Text | Print | Product List | Glossary On
Versions: 1 2 3 4 5 6 7 8 9 10 11 12 13 14 15 16 17 18 19 20 21 22 23 24 25 26 27 28 29 30 31 32 33 34 35 36 37 38 39 40 41 42 43 44 45 46 47 48 49 50
000
ASUS44 KLZK 300605
RWRLZK

WEATHER ROUNDUP FOR ARKANSAS
NATIONAL WEATHER SERVICE LITTLE ROCK AR
100 AM CDT WED JUL 30 2014

NOTE: "FAIR" INDICATES FEW OR NO CLOUDS BELOW 12,000 FEET WITH NO
SIGNIFICANT WEATHER AND/OR OBSTRUCTIONS TO VISIBILITY.

ARZ001-003-010-029-300700-
NORTHWEST ARKANSAS

CITY           SKY/WX    TMP DP  RH WIND       PRES   REMARKS
FAYETTEVILLE   PTCLDY    63  61  93 S3        30.11F
6HR MIN TEMP:  63; 6HR MAX TEMP:  79;

FORT SMITH     MOCLDY    73  68  84 E6        30.07S
6HR MIN TEMP:  73; 6HR MAX TEMP:  88;

HARRISON       PTCLDY    65  62  90 CALM      30.11F
6HR MIN TEMP:  64; 6HR MAX TEMP:  78;

BENTONVILLE    PTCLDY    68  61  77 CALM      30.12S
6HR MIN TEMP:  66; 6HR MAX TEMP:  79;

ROGERS         MOCLDY    66  61  84 CALM      30.12F
6HR MIN TEMP:  66; 6HR MAX TEMP:  78;

SILOAM SPGS    MOCLDY    66  57  72 CALM      30.11F
6HR MIN TEMP:  66; 6HR MAX TEMP:  79;

HIGHFILL       MOCLDY    66  62  87 CALM      30.11S
6HR MIN TEMP:  64; 6HR MAX TEMP:  80;

$$

ARZ004-005-016-300700-
NORTH CENTRAL ARKANSAS

CITY           SKY/WX    TMP DP  RH WIND       PRES   REMARKS
BATESVILLE     PTCLDY    68  59  73 CALM      30.10F
6HR MIN TEMP:  68; 6HR MAX TEMP:  81;

FLIPPIN        CLEAR     66  61  82 E3        30.10S
6HR MIN TEMP:  66; 6HR MAX TEMP:  82;

MTN HOME       PTCLDY    66  60  81 SE6       30.08F
6HR MIN TEMP:  66; 6HR MAX TEMP:  79;

$$

ARZ040-041-300700-
WEST CENTRAL ARKANSAS

CITY           SKY/WX    TMP DP  RH WIND       PRES   REMARKS
MENA           PTCLDY    70  68  94 CALM      30.11S
MOUNT IDA      PTCLDY    68  67  96 CALM      30.07F
6HR MIN TEMP:  68; 6HR MAX TEMP:  81;

$$

ARZ009-017-025-026-028-300700-
NORTHEAST ARKANSAS

CITY           SKY/WX    TMP DP  RH WIND       PRES   REMARKS
CORNING        FAIR      66  63  88 SE3       30.11S
JONESBORO      CLEAR     62  59  90 CALM      30.10F
6HR MIN TEMP:  61; 6HR MAX TEMP:  77;

NEWPORT        CLEAR     67  63  87 E8        30.11F
6HR MIN TEMP:  67; 6HR MAX TEMP:  79; 6HR PCP: TRACE;

WALNUT RIDGE   CLEAR     66  59  77 SE6       30.09S
6HR MIN TEMP:  66; 6HR MAX TEMP:  77;

BLYTHEVILLE    CLEAR     65  57  75 CALM      30.11S
6HR MIN TEMP:  64; 6HR MAX TEMP:  75;

$$

ARZ022-023-033-042-044-300700-
CENTRAL ARKANSAS

CITY           SKY/WX    TMP DP  RH WIND       PRES   REMARKS
LITTLE ROCK    MOCLDY    71  60  68 CALM      30.09F
6HR MIN TEMP:  69; 6HR MAX TEMP:  82;

N LITTLE ROCK    N/A     71  62  72 SE5       30.09F
6HR MIN TEMP:  71; 6HR MAX TEMP:  80;

JACKSONVILLE   PTCLDY    67  63  88 CALM      30.09F
6HR MIN TEMP:  67; 6HR MAX TEMP:  82; 6HR PCP: TRACE;

SEARCY         CLEAR     65  63  93 CALM      30.11S
6HR MIN TEMP:  65; 6HR MAX TEMP:  80;

HOT SPRINGS    PTCLDY    70  63  78 E5        30.09F
6HR MIN TEMP:  70; 6HR MAX TEMP:  82;

RUSSELLVILLE   MOCLDY    68  65  90 CALM      30.08S
6HR MIN TEMP:  68; 6HR MAX TEMP:  82;

CLINTON        FAIR      64  64 100 CALM      30.11S
$$

ARZ036-300700-
EAST ARKANSAS

CITY           SKY/WX    TMP DP  RH WIND       PRES   REMARKS
WEST MEMPHIS   CLEAR     63  62  97 CALM      30.09F
6HR MIN TEMP:  62; 6HR MAX TEMP:  77;

$$

ARZ050-053-066-070-073-300700-
SOUTHWEST ARKANSAS

CITY           SKY/WX    TMP DP  RH WIND       PRES   REMARKS
ARKADELPHIA    FAIR      70  68  93 CALM      30.09S
6HR MIN TEMP:  70; 6HR MAX TEMP:  83; 6HR PCP: TRACE;

CAMDEN         PTCLDY    66  61  82 CALM      30.08S
TEXARKANA      PTCLDY    73  66  78 SE5       30.07F
6HR MIN TEMP:  73; 6HR MAX TEMP:  85;

EL DORADO      CLEAR     67  64  90 CALM      30.08F
6HR MIN TEMP:  67; 6HR MAX TEMP:  83;

DE QUEEN       PTCLDY    71  70  96 NE3       30.06S
6HR MIN TEMP:  71; 6HR MAX TEMP:  86;

$$

ARZ056-057-069-300700-
SOUTHEAST ARKANSAS

CITY           SKY/WX    TMP DP  RH WIND       PRES   REMARKS
PINE BLUFF     MOCLDY    67  63  87 CALM      30.10S
6HR MIN TEMP:  67; 6HR MAX TEMP:  80;

STUTTGART      PTCLDY    70  61  73 E5        30.10S
6HR MIN TEMP:  70; 6HR MAX TEMP:  79;

MONTICELLO     PTCLDY    67  60  78 CALM      30.09S
6HR MIN TEMP:  66; 6HR MAX TEMP:  81;


$$





USA.gov is the U.S. government's official web portal to all federal, state and local government web resources and services.